sat.trackr.live / text

‹ back to catalog

STARLINK-35860

NORAD 66881 · 2025-283D

PAYLOAD ACTIVE UNKNOWN

§ Identity

Operator
Country
US
Launch date
2025-12-04
Launch site
AFWTR
Launch vehicle
Mass (kg)
RCS (m²)

Purposes: comms

External: N2YO · Heavens-Above · Gunter

§ Orbital elements

Epoch: 2026-09-20T13:03:50.971680Z

Period
93.85 min
Inclination
53.1585°
Eccentricity
0.0001833
Mean motion
15.34395323 rev/d
Perigee alt
461.5 km
Apogee alt
464.0 km
Semi-major
6,840.9 km
B*
3.0724e-4
RAAN
197.2157°
Arg perigee
89.5050°
Mean anomaly
270.6163°
Rev number
4,570

§ Raw data

STARLINK-358601 66881U 25283D   26263.54433995  .00010016  00000+0  30724-3 0  99962 66881  53.1585 197.2157 0001833  89.5050 270.6163 15.34395323 45701

JSON: /api/v1/satellites/66881 · /tle

For live sub-satellite position, see the globe view (requires WebGL).

§ Visibility from observer

Set your observer location to see the next 7 days of passes ≥ 10°. The values pass through the URL so the page stays shareable.

No JS? Fill the form by hand. The geolocation button needs JavaScript.